Theta_e
299 299 300 300 300 300 300 300 300 300 300 300 304 311 312 310 308 307 308 304 305 305 306 307 307 308 305 303 307 312 312 310 311 311 311 311 309 308 307 308 308 308 309 309 307
299 299 300 300 300 300 300 300 300 300 300 300 300 301 309 311 308 305 302 303 303 304 304 304 305 307 306 306 306 309 308 309 310 310 308 305 305 305 306 307 308 308 307 306 305
298 299 299 299 300 300 300 300 300 300 300 300 300 299 302 308 306 299 300 302 304 304 304 303 303 304 306 306 305 306 309 308 306 305 304 304 305 304 305 306 303 302 302 302 303
298 298 298 298 299 299 300 300 300 300 300 300 299 299 301 306 303 297 299 300 300 301 302 303 304 304 306 307 303 306 304 303 303 303 302 302 302 303 302 299 298 299 298 299 300
298 298 298 298 298 298 299 300 300 300 300 299 299 300 304 300 294 296 298 298 299 300 301 303 304 303 305 304 304 304 303 303 302 300 299 298 301 302 299 295 295 296 296 297 298
297 297 297 297 298 300 299 299 299 299 298 298 300 302 300 295 293 294 295 296 297 300 301 302 302 303 303 303 304 300 302 301 300 297 296 295 299 301 299 294 294 295 295 296 296
297 297 296 298 299 298 299 298 298 298 299 300 299 297 297 292 292 293 293 295 296 300 299 300 300 302 300 301 296 299 301 301 297 294 293 293 302 297 295 295 296 295 294 294 294
296 296 296 298 300 299 299 298 297 299 300 299 298 298 291 291 292 294 296 297 298 299 299 299 299 295 293 293 296 297 300 300 296 292 292 293 299 295 295 296 296 295 294 293 293
295 295 296 299 300 298 299 300 299 298 298 298 297 296 291 292 293 294 297 296 297 298 298 297 295 291 293 299 299 295 298 295 294 291 292 293 294 295 294 295 295 295 294 293 293
295 295 296 299 300 299 299 299 298 298 297 296 296 295 291 290 290 292 296 297 296 294 294 293 291 295 293 297 298 294 293 292 292 291 291 293 294 295 294 294 294 293 293 293 292
295 295 295 298 300 298 296 295 295 295 292 289 289 289 289 290 290 292 294 294 293 291 293 289 293 292 291 290 289 289 290 291 291 290 291 292 294 295 294 293 293 293 292 292 292
294 295 294 296 299 297 298 297 294 293 290 289 289 290 289 289 290 291 292 291 292 292 291 292 290 289 290 289 289 290 291 291 291 291 291 292 293 295 294 293 292 292 292 291 291
294 295 294 296 298 299 298 295 293 293 293 289 289 288 289 289 287 288 289 288 290 291 291 292 288 288 289 290 291 290 290 290 290 291 292 292 294 296 296 294 293 292 291 291 290
293 294 294 294 298 300 298 293 293 293 304 292 290 289 288 289 288 287 287 288 288 289 289 289 288 288 289 289 289 291 289 289 290 292 296 293 297 295 296 295 294 292 291 290 290
293 293 293 294 296 297 295 293 297 296 308 290 289 288 288 289 287 288 287 289 289 288 290 288 288 288 288 288 288 291 289 290 291 292 292 294 294 297 295 294 293 292 291 290 289
293 293 293 294 296 296 293 296 296 310 304 289 288 289 290 288 288 288 287 287 286 289 289 288 287 288 288 288 288 288 290 291 292 293 297 293 292 296 296 294 292 291 290 289 289
293 293 293 292 295 294 294 298 308 306 287 290 290 289 289 288 289 288 288 288 290 293 291 288 288 287 287 288 288 290 291 298 298 299 298 292 291 296 295 292 291 290 289 289 288
293 292 292 292 295 295 297 299 301 287 288 287 289 288 289 287 287 287 288 289 287 287 290 292 295 287 287 287 288 288 289 296 298 296 294 290 293 298 294 291 290 289 289 289 288
293 292 292 291 295 296 293 303 300 290 288 289 288 289 288 287 288 287 287 288 287 286 292 291 289 286 287 287 288 287 290 287 289 287 288 293 293 293 293 292 290 290 289 288 288
292 291 291 291 294 295 298 295 288 288 288 288 293 288 291 287 288 288 287 286 287 287 284 285 291 286 287 287 287 287 288 289 288 293 295 293 291 294 294 294 291 290 289 288 288
291 290 290 290 292 290 300 289 285 287 288 289 288 287 288 288 287 288 288 285 286 287 285 285 287 288 286 287 288 286 287 287 287 288 291 291 295 294 293 292 290 289 289 288 288
290 296 289 289 292 280 289 285 287 287 287 288 287 287 289 286 287 287 289 287 286 287 287 286 287 289 288 285 284 286 287 288 290 289 287 288 290 290 290 290 289 288 288 288 288
291 290 289 288 299 288 283 286 287 288 287 288 288 288 287 287 289 286 286 286 285 287 287 286 287 292 288 285 284 285 286 287 285 285 287 289 293 288 288 289 288 287 287 287 287
291 297 289 288 284 288 286 287 287 287 287 286 286 286 286 286 286 285 286 286 286 287 287 286 285 288 296 291 286 285 286 286 287 288 288 287 291 292 291 290 289 288 287 286 287
291 285 284 293 287 283 286 286 287 287 285 286 286 286 286 284 285 286 286 286 286 287 288 288 287 283 285 286 286 286 286 286 287 287 287 291 291 292 291 290 288 287 286 286 287
291 288 284 281 282 284 284 287 288 287 287 287 286 287 284 285 289 287 287 287 288 285 287 282 287 279 282 285 285 285 285 285 286 287 287 288 288 289 288 287 287 287 287 286 287
290 288 288 282 282 287 289 287 287 287 286 286 286 287 286 286 285 285 286 286 286 286 287 284 286 284 288 282 283 285 284 286 286 285 286 287 289 290 289 288 288 287 286 286 286
Wind_Speed
9 9 9 8 8 8 8 8 8 8 8 7 8 9 7 4 7 4 6 6 5 6 5 6 4 1 4 5 6 6 4 9 7 7 3 7 10 8 11 13 14 11 20 27 26
5 6 7 8 9 10 10 9 9 9 9 8 10 11 10 7 4 9 6 3 2 2 2 3 3 3 4 4 4 5 4 4 2 7 7 12 9 13 9 18 18 22 25 29 31
11 10 9 8 7 7 8 10 9 9 9 7 9 11 12 10 4 8 4 1 2 1 2 3 1 2 3 4 3 3 4 1 4 9 16 14 12 15 12 9 24 25 26 25 24
13 14 13 12 11 9 7 6 8 9 8 7 9 11 11 11 2 10 8 5 2 0 1 1 3 4 4 5 2 4 1 4 6 14 16 14 14 14 15 12 21 23 24 26 28
12 11 10 10 10 10 11 7 2 5 6 7 10 12 13 5 7 12 9 7 4 2 2 3 3 3 4 4 2 2 3 6 10 11 11 13 16 4 11 27 25 25 26 27 27
12 11 10 8 7 10 9 7 5 5 8 11 14 13 8 7 11 12 9 2 1 2 4 5 4 5 6 3 1 2 4 6 7 17 9 19 15 1 18 32 26 26 28 26 24
12 10 9 7 9 10 13 13 13 15 18 18 18 16 16 7 14 14 7 6 6 8 10 10 7 3 3 5 6 2 2 2 15 23 11 25 9 14 31 24 22 23 26 27 28
11 9 7 5 8 14 16 17 18 19 19 19 14 3 9 10 15 8 13 14 12 11 12 12 7 10 5 3 3 3 3 2 10 17 10 17 2 26 29 28 29 27 25 24 26
12 9 7 7 10 12 14 14 13 12 12 9 6 5 6 6 17 15 10 17 17 13 12 6 8 9 7 2 4 9 2 6 6 13 15 10 6 17 20 23 25 27 26 26 26
13 9 7 8 10 11 11 12 10 9 11 10 5 7 9 9 17 15 11 8 6 9 7 8 10 7 13 4 3 3 3 3 6 8 13 7 6 10 17 20 22 25 29 30 30
13 8 6 9 9 15 13 6 6 7 27 14 11 11 11 8 17 15 8 8 5 12 6 12 12 12 11 10 5 1 2 7 4 1 12 4 1 1 10 17 22 23 25 30 31
12 10 4 4 12 14 4 1 4 15 16 16 15 10 16 10 6 18 11 6 9 6 3 7 11 6 3 7 3 1 3 7 5 3 7 4 6 4 1 10 14 18 22 25 31
12 10 4 4 11 13 7 3 19 14 7 7 14 9 7 12 11 18 10 6 12 19 17 11 4 4 4 8 7 3 6 7 5 11 1 10 3 8 4 3 15 19 20 21 23
12 9 4 2 5 10 6 17 11 5 3 7 6 7 10 3 6 18 9 4 6 5 6 8 4 5 5 5 8 3 7 10 8 6 2 6 3 8 5 5 12 20 22 22 25
9 12 6 3 4 8 12 16 5 2 3 4 4 4 11 7 1 14 13 9 7 5 3 2 2 5 4 4 6 3 14 7 3 3 3 1 3 4 3 5 11 17 19 21 21
8 8 8 3 2 7 21 9 2 1 4 1 3 5 2 9 5 6 7 10 4 6 12 5 1 1 4 8 6 13 2 3 3 2 3 4 4 4 3 2 6 13 18 20 21
8 4 9 2 4 15 15 6 2 3 3 1 2 3 5 7 5 8 5 7 3 3 1 1 1 1 3 3 3 9 1 1 2 2 3 5 6 7 7 6 3 9 13 17 19
7 1 6 2 8 15 13 2 3 1 4 1 3 5 3 5 4 4 3 3 5 1 3 1 3 2 3 3 2 6 4 3 4 3 4 3 6 3 8 7 2 5 8 13 18
6 2 5 3 11 15 4 1 1 3 6 10 4 2 1 1 1 2 3 2 1 2 1 2 3 1 0 2 2 2 3 2 2 2 3 4 5 10 9 9 6 4 10 12 15
1 5 8 5 13 11 2 2 2 2 5 2 3 2 4 3 4 3 3 3 4 1 1 4 1 2 3 2 4 2 6 1 2 2 5 4 8 9 11 12 7 5 7 10 12
4 5 6 8 11 2 1 3 3 3 2 2 4 4 2 4 2 3 5 3 3 4 4 3 1 3 1 6 6 4 3 2 1 2 3 5 6 5 10 10 8 5 7 8 11
3 2 4 11 2 3 2 4 3 5 2 3 4 4 4 5 3 4 4 2 9 8 3 2 1 3 1 3 2 0 3 5 3 4 4 3 10 3 8 10 11 9 13 11 12
3 2 4 11 2 2 2 2 2 4 4 3 3 1 2 5 1 3 4 2 12 9 6 6 2 3 2 2 1 5 8 7 2 1 10 4 7 1 9 12 15 16 23 18 19
1 1 3 3 5 6 6 4 4 2 3 4 4 3 3 2 1 5 5 5 12 8 6 6 3 6 5 2 3 4 7 15 9 5 6 16 22 25 14 13 20 25 23 24 17
3 2 1 1 4 3 2 5 5 6 2 5 2 4 5 4 2 4 5 4 8 9 8 4 5 5 13 15 14 13 14 15 22 22 10 20 17 23 14 14 28 28 24 21 18
3 3 5 4 2 0 2 5 7 4 7 4 3 8 8 5 5 8 8 5 5 5 8 3 2 1 5 10 12 15 19 21 25 25 28 34 32 34 40 31 22 20 19 21 19
4 5 4 1 1 1 2 5 7 8 6 2 7 6 9 11 10 3 10 4 7 9 11 7 4 0 5 3 9 9 16 21 13 11 19 21 26 20 17 18 19 17 18 22 22
Wind_Direction
339 334 328 318 306 296 287 278 268 259 249 235 217 208 193 136 72 117 21 13 8 18 37 39 27 18 135 137 129 144 205 254 269 295 18 23 354 354 327 302 313 299 302 314 326
327 317 313 311 309 306 300 288 276 267 252 223 215 213 209 199 117 63 77 79 39 356 19 42 53 106 112 118 147 191 217 239 336 329 338 335 354 332 334 317 321 324 320 320 323
346 341 337 325 308 293 290 286 280 266 256 229 210 203 199 194 146 26 32 195 232 291 344 5 51 105 125 148 143 165 245 360 68 8 339 327 339 335 336 341 348 348 344 346 347
351 348 344 337 331 321 293 270 267 264 251 227 201 182 177 172 190 345 342 351 353 30 52 192 193 163 149 160 105 205 124 30 346 349 356 342 328 334 36 17 346 339 338 340 339
354 350 347 344 344 333 331 331 270 234 226 204 171 165 155 130 9 343 341 341 345 44 97 135 121 125 148 125 125 244 17 346 349 18 21 347 328 321 58 356 348 348 354 354 349
6 1 359 5 12 11 14 33 66 111 143 144 141 140 141 79 352 335 342 322 265 130 114 116 102 109 99 92 33 326 308 15 35 7 44 355 321 205 354 346 353 4 3 2 358
15 15 16 34 33 41 75 81 97 112 123 130 129 116 83 79 23 352 9 52 114 141 116 103 110 130 105 124 358 343 260 160 30 358 25 338 135 25 348 359 17 17 8 6 1
23 23 34 42 83 89 93 88 100 109 125 138 143 137 82 51 31 62 84 81 108 114 116 114 116 85 55 342 62 52 124 6 35 19 1 350 64 9 11 19 22 21 19 13 6
25 29 59 79 99 102 108 100 109 116 122 129 127 118 81 46 33 51 98 97 101 106 101 116 87 58 30 132 118 34 20 360 337 28 349 15 27 10 20 28 22 16 16 13 8
28 38 63 113 122 119 117 106 109 115 114 98 75 74 37 12 30 47 102 106 118 125 66 50 54 63 31 5 65 18 7 320 306 356 1 39 68 33 21 29 29 15 6 5 6
22 39 54 154 144 140 131 126 119 87 73 68 66 82 43 59 52 42 95 94 83 55 67 35 69 56 40 43 67 54 316 320 343 109 334 17 96 81 30 28 20 16 7 359 360
20 14 57 148 171 173 164 355 148 132 90 64 68 70 46 44 43 43 68 75 40 78 62 96 66 41 52 23 358 66 340 15 294 314 329 332 300 188 138 42 28 15 8 1 353
17 16 50 75 184 198 210 137 133 122 86 37 37 39 26 44 44 7 39 63 60 59 60 81 71 356 26 27 22 51 19 347 311 314 301 307 211 218 213 305 7 13 7 1 358
14 16 40 120 151 189 190 155 142 133 102 5 355 26 9 65 61 25 38 76 56 86 65 67 36 32 32 44 1 19 2 323 314 322 4 350 302 227 247 312 356 1 3 358 353
3 10 27 80 157 171 168 158 131 105 195 21 18 30 34 76 338 20 32 56 76 67 237 98 67 34 36 347 340 328 331 305 297 253 296 49 273 158 232 270 350 355 354 353 351
355 5 9 40 142 162 154 146 92 51 235 142 332 355 50 32 44 359 47 66 86 62 57 94 109 322 350 308 275 317 323 154 177 217 242 131 3 238 219 225 334 346 353 353 351
348 341 12 12 150 155 157 133 101 202 9 169 56 43 76 24 45 24 47 42 34 132 73 95 104 34 348 300 262 352 214 220 244 253 308 155 292 279 183 175 336 336 338 348 350
341 347 18 41 155 161 154 94 203 39 203 204 121 81 75 2 43 34 103 100 57 15 112 200 224 182 9 32 353 11 359 26 293 292 309 268 231 309 180 185 282 306 319 340 350
334 168 23 107 160 159 158 145 267 177 146 152 109 119 117 148 91 100 45 115 101 5 93 189 171 148 103 95 289 43 60 38 97 64 282 256 265 259 199 222 247 305 340 336 342
296 157 26 145 162 166 87 134 123 123 125 159 168 252 162 178 173 185 173 160 139 96 262 148 203 181 132 166 78 7 142 167 86 299 280 248 279 265 214 229 247 297 309 322 329
156 141 15 149 154 159 170 123 185 190 160 161 145 126 130 158 186 175 155 169 209 137 90 141 262 133 248 199 180 155 174 116 40 248 276 299 264 220 230 206 225 278 290 305 314
168 142 7 163 95 53 106 161 151 147 120 110 100 107 152 161 148 182 198 236 173 159 143 149 106 239 166 113 326 272 203 194 221 193 237 278 269 248 226 220 227 264 303 301 304
136 133 27 174 171 113 155 114 124 148 163 142 120 108 156 163 169 188 191 177 174 171 166 174 190 295 185 141 59 225 200 206 135 155 220 214 258 172 214 231 242 266 305 298 302
144 149 66 111 88 131 146 151 133 115 133 124 120 106 126 136 161 175 203 183 191 199 169 158 193 239 251 54 96 200 202 207 199 217 232 230 271 278 265 266 278 291 295 297 290
57 85 100 29 40 93 79 147 143 170 145 158 133 201 162 138 150 216 191 181 189 207 192 194 247 215 266 271 257 254 245 217 217 221 233 266 264 272 285 295 293 295 289 288 282
92 144 96 92 80 171 333 197 164 164 155 204 201 185 181 173 198 188 168 196 196 175 178 167 254 106 271 273 263 261 257 239 239 244 250 259 271 268 281 284 277 287 287 281 279
70 100 124 69 115 217 208 172 193 154 198 170 175 149 206 239 225 201 195 210 193 169 181 167 203 292 266 2 305 263 243 222 216 221 228 246 249 275 274 276 281 292 291 284 278